Regional Weather Roundup
Issued by NWS

Home | Current Version | Previous Version | Graphics & Text | Print | Product List | Glossary On
Versions: 1 2 3 4 5 6 7 8 9 10 11 12 13 14 15 16 17 18 19 20 21 22 23 24 25 26 27 28 29 30 31 32 33 34 35 36 37 38 39 40 41 42 43 44 45 46 47 48 49 50
000
ASUS43 KLSX 242307
RWRMO

WEATHER SUMMARY FOR MISSOURI
NATIONAL WEATHER SERVICE SPRINGFIELD MO
500 PM CST SAT FEB 24 2018

NOTE: "FAIR" INDICATES FEW OR NO CLOUDS BELOW 12,000 FEET WITH NO
       SIGNIFICANT WEATHER AND/OR OBSTRUCTIONS TO VISIBILITY.
       CURRENT SKY AND/OR WEATHER CONDITIONS ARE NOT AVAILABLE FOR
       CHILLICOTHE AND FARMINGTON.

MOZ001>031-035>038-043-044-053-054-250000-
...NORTHERN AND WESTERN MISSOURI...

CITY           SKY/WX    TMP DP  RH WIND       PRES   REMARKS
KANSAS CTY INT CLOUDY    35  34  96 W13       29.73R WCI  26
KANSAS C DTWN  CLOUDY    39  35  86 W14       29.73R
LEE`S SUMMIT   CLOUDY    39  38  96 W14G24    29.71R
ST JOSEPH      CLOUDY    33  33 100 W13       29.74R WCI  24
CHILLICOTHE      N/A     41  40  96 W6        29.67R
KIRKSVILLE     FOG       40  40 100 CALM      29.61F VSB 1/4

$$
MOZ066>068-077>081-088>096-101>105-250000-
...SOUTHWEST MISSOURI...

CITY           SKY/WX    TMP DP  RH WIND       PRES   REMARKS
SPRINGFIELD    LGT RAIN  52  51  97 W16G28    29.70R FOG
JOPLIN         CLOUDY    45  45 100 W18G31    29.79R
BRANSON        CLOUDY    57  57 100 W10G16    29.70R

$$
MOZ032>034-039>042-045>050-055>058-069>072-250000-
...CENTRAL MISSOURI...

CITY           SKY/WX    TMP DP  RH WIND       PRES   REMARKS
COLUMBIA       CLOUDY    50  49  96 S6        29.61F
JEFFERSON CITY CLOUDY    53  51  93 SE7       29.62F
ROLLA          CLOUDY    53  53 100 SE12      29.61F
SEDALIA        LGT RAIN  51  51 100 W7        29.65S FOG
WHITEMAN AFB   DRIZZLE   45  43  93 W15G23    29.65R
WARRENSBURG    DRIZZLE   41  41 100 W10G16    29.69R
OSAGE BEACH    CLOUDY    55  53  93 SW6       29.64R

$$
MOZ051-052-059>065-250000-
...EAST CENTRAL MISSOURI...

CITY           SKY/WX    TMP DP  RH WIND       PRES   REMARKS
ST LOUIS INTL  LGT RAIN  50  50 100 SE15      29.63F VSB 1/4
SPIRIT OF STL  CLOUDY    51  51 100 SE12G23   29.62F
ST CHARLES       N/A     50  50 100 SE16      29.62F FOG

$$
MOZ072>076-082>087-097>100-106>115-250000-
...SOUTH CENTRAL AND SOUTHEAST MISSOURI...

CITY           SKY/WX    TMP DP  RH WIND       PRES   REMARKS
CAPE GIRARDEAU TSTM      61  59  93 S10G20    29.68R FOG
FARMINGTON     LGT RAIN  52  50  93 E13       29.63F
POPLAR BLUFF   TSTM      63  60  90 W24G38    29.66S VSB 1
WEST PLAINS    CLOUDY    55  55 100 S3        29.65F

$$



USA.gov is the U.S. government's official web portal to all federal, state and local government web resources and services.